Regional Weather Roundup
Issued by NWS Sioux Falls, SD

Home | Current Version | Previous Version | Graphics & Text | Print | Product List | Glossary On
Versions: 1 2 3 4 5 6 7 8 9 10 11 12 13 14 15 16 17 18 19 20 21 22 23 24 25 26 27 28 29 30 31 32 33 34 35 36 37 38 39 40 41 42 43 44 45 46 47 48 49 50
363
ASUS43 KFSD 250702
RWRFSD

WEATHER ROUNDUP FOR SE SOUTH DAKOTA/SW MINNESOTA/NW IOWA
NATIONAL WEATHER SERVICE SIOUX FALLS SD
100 AM CST SAT NOV 25 2017

NOTE: "FAIR" INDICATES FEW OR NO CLOUDS BELOW 12,000 FEET WITH NO
SIGNIFICANT WEATHER AND OR OBSTRUCTIONS TO VISIBILITY.


SDZ038>040-050-052>070-250800-
SOUTHEAST SOUTH DAKOTA

CITY           SKY/WX    TMP DP  RH WIND       PRES   REMARKS
BROOKINGS      CLEAR     37  31  78 NW14      29.92R
CHAMBERLAIN    CLEAR     36  33  90 W7        30.00S
HURON          CLEAR     31  28  89 W7        29.95R WCI  24
MADISON        FAIR      36  32  87 NW9       29.94R
MITCHELL       CLEAR     37  31  78 W9        29.98R
SIOUX FALLS    CLEAR     35  31  85 W9        29.95R WCI  28
WINNER         FAIR      38  31  76 W8        30.02R
YANKTON        CLEAR     40  32  73 W10       29.99R
$$

MNZ071-072-080-081-089-090-097-098-250800-
SOUTHWEST MINNESOTA

CITY           SKY/WX    TMP DP  RH WIND       PRES   REMARKS
FAIRMONT       MOCLDY    41  33  73 NW13      29.87R
JACKSON        PTCLDY    41  32  70 NW13      29.88R
MARSHALL       CLEAR     36  30  79 W12       29.89R
MONTEVIDEO     PTCLDY    37  30  75 NW8       29.87R
PIPESTONE      CLEAR     34  28  80 NW6       29.91R WCI  29
REDWOOD FALLS  MOCLDY    39  31  72 NW10      29.86R
WINDOM         CLEAR     34  19  55 W9        29.88R WCI  26
WORTHINGTON    PTCLDY    38  30  73 W10       29.91R
$$

IAZ001>003-012>014-020>022-031-032-NEZ013-014-SDZ071-250800-
NORTHWEST IOWA

CITY           SKY/WX    TMP DP  RH WIND       PRES   REMARKS
CHEROKEE       PTCLDY    35  31  85 CALM      29.96R
DENISON        CLEAR     37  32  81 CALM      29.99R
ESTHERVILLE    PTCLDY    37  32  82 W12       29.88R
LE MARS        CLEAR     37  32  81 W3        29.97R
ORANGE CITY    CLEAR     34  30  86 CALM      29.95R
SHELDON        PTCLDY    34  30  86 W7        29.92R WCI  28
SIOUX CITY     CLEAR     34  30  85 CALM      29.99R
SPENCER        CLOUDY    34  30  85 W8        29.92R WCI  27
STORM LAKE     CLOUDY    34  30  86 W12       29.94R WCI  25
$$

ABBREVIATIONS USED IN REMARKS
   TC - TEMPERATURE IN CELSIUS
  WCI - WIND CHILL INDEX
   HX - HEAT INDEX
  VSB - VISIBILITY





USA.gov is the U.S. government's official web portal to all federal, state and local government web resources and services.